EDT,Max TemperatureF,Mean TemperatureF,Min TemperatureF,Max Dew PointF,MeanDew PointF,Min DewpointF,Max Humidity, Mean Humidity, Min Humidity, Max Sea Level PressureIn, Mean Sea Level PressureIn, Min Sea Level PressureIn, Max VisibilityMiles, Mean VisibilityMiles, Min VisibilityMiles, Max Wind SpeedMPH, Mean Wind SpeedMPH, Max Gust SpeedMPH,PrecipitationIn, CloudCover, Events, WindDirDegrees
2012-10-1,64,53,42,50,45,40,100,79,41,29.99,29.92,29.83,10,4,0,6,1,,0.01,3,Fog,64
2012-10-2,73,65,57,66,61,51,94,86,75,29.90,29.85,29.80,10,7,0,9,5,,0.39,7,Fog-Rain,117
2012-10-3,75,70,66,63,60,57,88,72,57,30.16,30.05,29.89,10,10,10,12,6,17,0.00,5,,211
2012-10-4,73,67,61,58,52,48,81,62,41,30.21,30.17,30.14,10,10,10,15,5,20,0.00,3,,234
2012-10-5,77,64,55,55,53,52,87,64,48,30.14,30.06,29.89,10,10,7,14,9,17,0.00,3,,209
2012-10-6,64,55,46,56,41,32,93,71,40,30.12,29.98,29.83,10,8,2,13,8,24,0.13,5,Rain,302
2012-10-7,48,44,39,38,36,32,89,70,54,30.20,30.13,30.07,10,10,10,9,4,,0.05,7,Rain,282
2012-10-8,48,42,35,40,36,33,93,81,56,30.29,30.23,30.19,10,5,0,6,3,,0.01,5,Fog,160
2012-10-9,59,47,35,40,37,32,97,78,48,30.23,30.16,30.04,10,6,0,9,1,,0.01,2,Fog,191
2012-10-10,54,50,44,45,39,28,87,69,52,30.18,30.00,29.93,10,10,7,15,8,22,0.02,5,Rain,234
2012-10-11,57,46,36,29,27,26,70,50,32,30.32,30.23,30.13,10,10,10,9,7,20,0.00,0,,235
2012-10-12,55,48,41,37,31,25,71,55,34,30.44,30.30,30.14,10,10,10,13,7,21,0.00,4,,328
2012-10-13,66,49,34,42,33,23,67,52,40,30.44,30.29,30.09,10,10,10,9,5,,0.00,1,,141
2012-10-14,77,66,57,55,49,43,65,52,43,30.09,29.96,29.73,10,10,10,17,11,24,0.00,4,,186
2012-10-15,70,59,48,57,48,42,87,75,51,29.90,29.78,29.67,10,8,2,16,12,32,0.29,7,Rain,260
2012-10-16,55,50,44,43,39,35,87,71,47,30.00,29.93,29.89,10,10,10,8,5,,0.00,5,,263
2012-10-17,71,54,39,43,39,36,93,61,35,29.94,29.88,29.78,10,9,2,13,7,17,0.00,0,,155
2012-10-18,70,57,46,47,43,37,93,71,40,29.86,29.76,29.68,10,7,0,15,7,24,0.55,4,Fog-Rain,152
2012-10-19,66,55,44,46,42,33,93,73,31,29.81,29.73,29.62,10,6,0,23,6,32,0.01,5,Fog-Rain,155
2012-10-20,53,50,46,44,39,37,80,69,55,29.95,29.79,29.72,10,10,8,18,10,25,0.02,7,Rain,216
2012-10-21,60,50,44,40,37,33,80,61,40,30.16,30.10,29.97,10,10,10,10,8,17,0.00,3,,246
2012-10-22,72,56,39,49,42,35,86,61,41,30.22,30.16,30.08,10,10,4,8,6,,0.00,1,,181
2012-10-23,78,68,60,50,47,43,67,50,30,30.09,30.06,30.02,10,10,10,16,8,23,0.00,3,Rain,200
2012-10-24,77,68,60,52,49,48,67,54,38,30.15,30.10,30.06,10,10,10,9,6,,0.00,2,,192
2012-10-25,81,68,55,52,48,44,78,52,27,30.13,30.08,30.02,10,10,6,12,7,20,0.00,0,,168
2012-10-26,77,65,54,53,51,48,81,65,41,30.10,30.05,29.99,10,10,7,15,7,23,0.00,3,,179
2012-10-27,54,50,46,48,46,43,93,84,76,30.01,29.98,29.94,10,7,1,13,8,20,0.16,8,Rain,337
2012-10-28,46,44,42,43,41,39,93,88,85,30.00,29.90,29.83,10,6,2,13,10,23,0.26,8,Rain,348
2012-10-29,42,40,37,39,37,34,89,86,81,29.84,29.50,29.11,9,5,3,29,15,43,1.52,8,Rain,332
2012-10-30,46,42,37,43,38,34,93,86,76,29.39,29.13,28.96,10,6,1,29,15,40,0.81,8,Rain,283
2012-10-31,41,38,35,37,35,32,93,87,81,29.68,29.52,29.36,10,7,2,17,11,24,0.47,8,Rain-Snow,233